Preview of NWS' New Version of Forecast
This preview is not operational and should not be used for support decisions.

Regional Weather Roundup (RWR)

Issued by National Weather Service (NWS)

                            
000
ASUS43 KMKX 201220
RWRWI 

WISCONSIN REGIONAL WEATHER ROUNDUP
NATIONAL WEATHER SERVICE MILWAUKEE/SULLIVAN WI
600 AM CST WED FEB 20 2019

NOTE: "FAIR" INDICATES FEW OR NO CLOUDS BELOW 12,000 FEET WITH NO
SIGNIFICANT WEATHER AND/OR OBSTRUCTIONS TO VISIBILITY.

WIZ001-002-006>008-014>016-023>028-201300-
NORTHWEST WISCONSIN
  
CITY           SKY/WX    TMP DP  RH WIND       PRES   REMARKS
SUPERIOR ARPT  CLOUDY    12   6  78 NE7       30.09F WCI   1          
6HR MIN TEMP:   0; 6HR MAX TEMP:  11;                                

ASHLAND        CLOUDY    11   4  73 NE5       30.11F WCI   3          
6HR MIN TEMP:   0; 6HR MAX TEMP:  11;                                

HAYWARD        CLOUDY    17   7  64 VRB6      30.02F WCI   9          
6HR MIN TEMP:   2; 6HR MAX TEMP:  17;                                

SIREN          CLOUDY    17   7  66 E5        30.00F WCI   9          
6HR MIN TEMP:   9; 6HR MAX TEMP:  17;                                

CUMBERLAND     LGT SNOW  18  12  79 E8        29.97F WCI   7          
RICE LAKE      LGT SNOW  17  13  84 E12       30.01F WCI   4          
6HR MIN TEMP:   1; 6HR MAX TEMP:  17;                                

CHETEK         LGT SNOW  15  12  88 E9        30.00F WCI   3          
6HR MIN TEMP:   4; 6HR MAX TEMP:  15;                                

LADYSMITH      CLOUDY    18  11  74 E9        30.04F WCI   7          
6HR MIN TEMP:   5; 6HR MAX TEMP:  18;                                

EAU CLAIRE     LGT SNOW  19  16  88 E9        29.99F VSB 1   WCI   8  
6HR MIN TEMP:  10; 6HR MAX TEMP:  19; 6HR PCP: TRACE;                

MENOMONIE      LGT SNOW  15  13  89 E10       29.98F WCI   3          
6HR MIN TEMP:   2; 6HR MAX TEMP:  15;                                

NEW RICHMOND   LGT SNOW  18  13  84 E10       29.96F WCI   6          
6HR MIN TEMP:   8; 6HR MAX TEMP:  17;                                

OSCEOLA        LGT SNOW  19  17  90 E9        30.00F WCI   8          
6HR MIN TEMP:  10; 6HR MAX TEMP:  20;                                

$$
 
WIZ003>005-009-010-017-018-201300-
NORTH CENTRAL WISCONSIN
  
CITY           SKY/WX    TMP DP  RH WIND       PRES   REMARKS
MANITOWISH WTR NOT AVBL                                               
ARBOR VITAE    CLOUDY    17  12  80 SE6       30.05F WCI   8          
6HR MIN TEMP:   2; 6HR MAX TEMP:  17;                                

WOODRUFF       CLOUDY    17  12  80 SE6       30.05F WCI   8          
6HR MIN TEMP:   2; 6HR MAX TEMP:  17;                                

RHINELANDER    CLOUDY    14   8  77 E6        30.07F WCI   5          
6HR MIN TEMP:   3; 6HR MAX TEMP:  14;                                

EAGLE RIVER    CLOUDY    13   8  82 CALM      30.06F                  
6HR MIN TEMP:   0; 6HR MAX TEMP:  12;                                

LAND O LAKES   CLOUDY     8   6  88 CALM      30.08F                  
6HR MIN TEMP:  -2; 6HR MAX TEMP:   8;                                

PHILLIPS       CLOUDY    15   9  78 E10       30.04F WCI   2          
6HR MIN TEMP:  -1; 6HR MAX TEMP:  15;                                

TOMAHAWK       CLOUDY    15  10  81 SE3       30.07F                  
6HR MIN TEMP:  -1; 6HR MAX TEMP:  15;                                

MEDFORD        LGT SNOW  16  11  80 E9        30.02F WCI   4          
6HR MIN TEMP:   5; 6HR MAX TEMP:  16;                                

MERRILL        CLOUDY    16  11  80 SE5       30.09F WCI   8          
6HR MIN TEMP:   0; 6HR MAX TEMP:  15;                                

$$
 
WIZ029-030-035-036-043>047-201300-
CENTRAL WISCONSIN
  
CITY           SKY/WX    TMP DP  RH WIND       PRES   REMARKS
WAUSAU         LGT SNOW  17  11  77 E8        30.07F WCI   7          
6HR MIN TEMP:   7; 6HR MAX TEMP:  16;                                

MOSINEE        LGT SNOW  18  12  79 E8        30.09F WCI   7          
MARSHFIELD     LGT SNOW  18  14  84 E12       30.03F VSB 3/4 WCI   5  
6HR MIN TEMP:  13; 6HR MAX TEMP:  18; 6HR PCP: TRACE;                

STEVENS POINT  CLOUDY    17  13  82 E6        30.09F WCI   9          
6HR MIN TEMP:   9; 6HR MAX TEMP:  17;                                

WAUPACA        LGT SNOW  21  18  85 E7        30.11F WCI  13          
6HR MIN TEMP:  13; 6HR MAX TEMP:  22;                                

WAUTOMA        LGT SNOW  21  19  93 E10       30.07F VSB 1   WCI  10  
6HR MIN TEMP:  16; 6HR MAX TEMP:  23;                                

WISC RAPIDS    LGT SNOW  20  14  77 E9        30.06F VSB 3/4 WCI   9  
6HR MIN TEMP:  17; 6HR MAX TEMP:  20; 6HR PCP: TRACE;                

CAMP DOUGLAS   LGT SNOW  23  23 100 E12       30.01F FOG     WCI  12  
6HR MIN TEMP:  17; 6HR MAX TEMP:  22; 6HR PCP:  0.01;                

$$
 
WIZ011>013-019>022-031-037>040-048>050-201300-
NORTHEAST WISCONSIN
  
CITY           SKY/WX    TMP DP  RH WIND       PRES   REMARKS
ANTIGO         FLURRIES  17  12  82 SE9       30.09S WCI   5          
6HR MIN TEMP:   1; 6HR MAX TEMP:  16;                                

SHAWANO        LGT SNOW  18  13  79 NE5       30.16F WCI  11          
6HR MIN TEMP:   5; 6HR MAX TEMP:  18;                                

OCONTO         CLOUDY    17  11  78 E3        30.18F                  
6HR MIN TEMP:   3; 6HR MAX TEMP:  17;                                

STURGEON BAY   FLURRIES  25  21  85 SE8       30.19F WCI  16          
6HR MIN TEMP:  11; 6HR MAX TEMP:  25; 6HR PCP: TRACE;                

GREEN BAY      CLOUDY    22  15  75 NE8       30.15F WCI  12          
6HR MIN TEMP:  12; 6HR MAX TEMP:  22;                                

MANITOWOC      CLOUDY    28  21  75 E12       30.16F WCI  18          
6HR MIN TEMP:  14; 6HR MAX TEMP:  28; 6HR PCP: TRACE;                

APPLETON       LGT SNOW  21  16  79 E8        30.11F WCI  12          
CLINTONVILLE   LGT SNOW  19  14  80 E6        30.14F WCI  11          
6HR MIN TEMP:   7; 6HR MAX TEMP:  19;                                

OSHKOSH        LGT SNOW  25  22  88 E13       30.11F FOG     WCI  14  
6HR MIN TEMP:  16; 6HR MAX TEMP:  25; 6HR PCP: TRACE;                

$$
 
WIZ032>034-041-042-053>061-201300-
SOUTHWEST WISCONSIN
  
CITY           SKY/WX    TMP DP  RH WIND       PRES   REMARKS
LA CROSSE      LGT SNOW  25  22  88 E10       29.96F VSB 3/4 WCI  15  
6HR MIN TEMP:  20; 6HR MAX TEMP:  25; 6HR PCP:  0.14;                

SPARTA         LGT SNOW  22  21  94 E12       29.99F VSB 3/4 WCI  11  
6HR MIN TEMP:  15; 6HR MAX TEMP:  22;                                

VIROQUA        CLOUDY    24  24 100 E21G28    29.89F VSB 1/2 WCI   9  
6HR MIN TEMP:  20; 6HR MAX TEMP:  23; 6HR PCP:  0.06;                

BOSCOBEL       LGT SNOW  25  22  88 NE6       29.96F VSB 3/4 WCI  18  
6HR MIN TEMP:  21; 6HR MAX TEMP:  25; 6HR PCP:  0.18;                

PRAIRIE DU CHI MIX PCPN  26  23  87 E18G25    29.87F WCI  13          
6HR MIN TEMP:  22; 6HR MAX TEMP:  26;                                

PLATTEVILLE    CLOUDY    26  26 100 E22G28    29.90F WCI  12          
6HR MIN TEMP:  23; 6HR MAX TEMP:  26; 6HR PCP:  0.02;                

$$

WIZ056-057-062-063-064-067-068-201300-
SOUTH CENTRAL WISCONSIN
  
CITY           SKY/WX    TMP DP  RH WIND       PRES   REMARKS
REEDSBURG      MIX PCPN  23  23 100 E7        29.99F WCI  15          
6HR MIN TEMP:  19; 6HR MAX TEMP:  22;                                

BARABOO/DELLS  LGT SNOW  24  22  93 E13       30.00F VSB 3/4 WCI  12  
6HR MIN TEMP:  19; 6HR MAX TEMP:  23; 6HR PCP:  0.02;                

LONE ROCK      LGT SNOW  26  24  92 E21G31    29.99F VSB 1   WCI  12  
6HR MIN TEMP:  22; 6HR MAX TEMP:  26; 6HR PCP:  0.05;                

MINERAL POINT  LGT SNOW  28  28 100 E18       29.92F WCI  16          
MADISON        LGT SNOW  26  23  88 E14       30.01F VSB 1   WCI  14  
6HR MIN TEMP:  23; 6HR MAX TEMP:  26; 6HR PCP:  0.10;                

MIDDLETON      CLOUDY    28  26  94 E10       30.01F WCI  18          
6HR MIN TEMP:  24; 6HR MAX TEMP:  28; 6HR PCP:  0.01;                

WATERTOWN      LGT SNOW  27  27 100 E14G21    30.02F WCI  16          
6HR MIN TEMP:  23; 6HR MAX TEMP:  28;                                

MONROE         MIX PCPN  26  25  96 MISG      29.93F                  
6HR MIN TEMP:  24; 6HR MAX TEMP:  26; 6HR PCP:  0.02;                

JANESVILLE     LGT SNOW  28  28 100 E15       30.01F WCI  17          
$$
 
WIZ051-052-058>065-066-070>072-201300-
SOUTHEAST WISCONSIN
  
CITY           SKY/WX    TMP DP  RH WIND       PRES   REMARKS
MILWAUKEE      LGT SNOW  30  26  85 E14       30.08F VSB 3/4 WCI  19  
6HR MIN TEMP:  30; 6HR MAX TEMP:  31; 6HR PCP:  0.01;                

WAUKESHA       LGT SNOW  27  25  93 E10       30.07F VSB 1   WCI  17  
MILWAUKEE/TIMM LGT SNOW  30  23  74 E9        30.09F WCI  22          
RACINE         CLOUDY    31  24  75 E14       30.11F WCI  21          
6HR MIN TEMP:  30; 6HR MAX TEMP:  31; 6HR PCP: TRACE;                

KENOSHA        FLURRIES  31  26  82 E16G22    30.07F WCI  20          
6HR MIN TEMP:  31; 6HR MAX TEMP:  31; 6HR PCP: TRACE;                

FOND DU LAC    LGT SNOW  26  22  84 E10       30.10F FOG     WCI  16  
6HR MIN TEMP:  17; 6HR MAX TEMP:  28; 6HR PCP: TRACE;                

SHEBOYGAN      FLURRIES  28  21  75 E10G18    30.12F WCI  19          
6HR MIN TEMP:  16; 6HR MAX TEMP:  28; 6HR PCP: TRACE;                

WEST BEND      LGT SNOW  28  27  93 E9        30.09F WCI  20          
JUNEAU         LGT SNOW  26  24  94 E12       30.07F VSB 3/4 WCI  15  
6HR MIN TEMP:  20; 6HR MAX TEMP:  27;                                

$$

LSZ147-162-201300-
LAKE SUPERIOR
  
STATION/POSITION TIME  TEMP    WIND        PRES    WAVE
                       AIR SEA DIR/SP/G            HT/PER
                 (UTC) (F)     (DEG/KT/KT) (MB)    (FT/S)
DEVILS ISLAND    1200   17     130/  5/  6 1021.5F
SAXON HARBOR     1140   10      CALM  /  2 1019.6F
$$
 
LMZ867-665-643>646-201300-
LAKE MICHIGAN
  
STATION/POSITION TIME  TEMP    WIND        PRES    WAVE
                       AIR SEA DIR/SP/G            HT/PER
                 (UTC) (F)     (DEG/KT/KT) (MB)    (FT/S)
NORTHPORT PIER   1205